Louisville, KY

7:26 AM EST on December 13, 2017 (GMT -0500)
Louisville International-Standiford

Weather History for KSDF - August, 2014

Change the Weather History Date:

Friday, August 29, 2014

  Actual Average Record
Temperature  
Mean Temperature 83 °F 77 °F  
Max Temperature 93 °F 87 °F 99 °F (1953)
Min Temperature 73 °F 67 °F 46 °F (1986)
Degree Days  
Heating Degree Days 0 0  
Month to date heating degree days 0 0  
Since 1 June heating degree days 0 5  
Since 1 July heating degree days 0 0  
Cooling Degree Days 18 12  
Month to date cooling degree days 399 392  
Year to date cooling degree days 1367 1333  
Since 1 June cooling degree days 1133 1159  
Growing Degree Days 33 (Base 50)    
Moisture  
Dew Point 67 °F    
Average Humidity 61    
Maximum Humidity 84    
Minimum Humidity 38    
Precipitation  
Precipitation 0.00 in 0.09 in 2.71 in (1917)
Month to date precipitation 6.32 3.15  
Year to date precipitation 31.09 31.04  
Snow  
Snow 0.00 in 0.00 in - ()
Month to date snowfall 0.0 0.0  
Since 1 June snowfall 0.0 0.0  
Since 1 July snowfall 0.0 0.0  
Snow Depth 0.00 in    
Sea Level Pressure  
Sea Level Pressure 30.00 in    
Wind  
Wind Speed 7 mph (SE)    
Max Wind Speed 17 mph    
Max Gust Speed 25 mph    
Visibility 10 miles    
Events      
T = Trace of Precipitation, MM = Missing Value Source: NWS Daily Summary

Daily Weather History Graph

Daily Weather History Graph

Search for Another Location

Airport or City:

Trip Planner

Search our weather history database for the weather conditions in past years. The results will help you decide how hot, cold, wet, or windy it might be!

Date:

Astronomy

Aug. 29, 2014 Rise Set
Actual Time 7:10 AM EDT 8:17 PM EDT
Civil Twilight 6:42 AM EDT 8:44 PM EDT
Nautical Twilight 6:10 AM EDT 9:16 PM EDT
Astronomical Twilight 5:36 AM EDT 9:50 PM EDT
Moon 10:54 AM EDT (8/29) 10:18 PM EDT (8/29)
Length of Visible Light 14h 01m
Length of Day
13h 06m
Waxing Crescent, 15% of the Moon is Illuminated
Aug 29
Waxing Crescent
Sep 2
First Quarter
Sep 8
Full
Sep 15
Last Quarter
Sep 24
New

Hourly Weather History & Observations

Time (EDT) Temp. Heat Index Dew Point Humidity Pressure Visibility Wind Dir Wind Speed Gust Speed Precip Events Conditions
12:56 AM 80.1 °F 82.9 °F 69.1 °F 69% 30.02 in 10.0 mi East 5.8 mph - N/A   Partly Cloudy
1:56 AM 78.1 °F - 68.0 °F 71% 30.01 in 10.0 mi East 6.9 mph - N/A   Partly Cloudy
2:56 AM 77.0 °F - 68.0 °F 74% 30.01 in 10.0 mi East 4.6 mph - N/A   Partly Cloudy
3:56 AM 75.9 °F - 68.0 °F 76% 30.00 in 10.0 mi East 3.5 mph - N/A   Partly Cloudy
4:56 AM 75.0 °F - 68.0 °F 79% 30.00 in 10.0 mi ESE 4.6 mph - N/A   Clear
5:56 AM 73.9 °F - 68.0 °F 82% 30.01 in 9.0 mi ESE 3.5 mph - N/A   Partly Cloudy
6:56 AM 73.0 °F - 68.0 °F 84% 30.01 in 9.0 mi ESE 5.8 mph - N/A   Clear
7:56 AM 73.9 °F - 66.9 °F 79% 30.03 in 8.0 mi ESE 4.6 mph - N/A   Mostly Cloudy
8:56 AM 75.9 °F - 66.9 °F 74% 30.03 in 9.0 mi ESE 6.9 mph - N/A   Mostly Cloudy
9:56 AM 79.0 °F - 68.0 °F 69% 30.04 in 9.0 mi ESE 6.9 mph - N/A   Mostly Cloudy
10:56 AM 81.0 °F 84.4 °F 70.0 °F 69% 30.04 in 9.0 mi SE 8.1 mph - N/A   Scattered Clouds
11:56 AM 84.0 °F 89.6 °F 72.0 °F 67% 30.03 in 9.0 mi South 5.8 mph - N/A   Scattered Clouds
12:56 PM 87.1 °F 93.6 °F 72.0 °F 61% 30.02 in 9.0 mi SSE 8.1 mph - N/A   Scattered Clouds
1:56 PM 91.0 °F 96.6 °F 70.0 °F 50% 30.00 in 10.0 mi South 10.4 mph 21.9 mph N/A   Partly Cloudy
2:56 PM 91.0 °F 95.6 °F 69.1 °F 48% 29.99 in 10.0 mi South 11.5 mph - N/A   Scattered Clouds
3:56 PM 91.9 °F 94.1 °F 64.9 °F 41% 29.97 in 10.0 mi South 11.5 mph 19.6 mph N/A   Scattered Clouds
4:56 PM 91.9 °F 94.1 °F 64.9 °F 41% 29.96 in 10.0 mi South 12.7 mph - N/A   Scattered Clouds
5:56 PM 90.0 °F 90.0 °F 61.0 °F 38% 29.95 in 10.0 mi South 11.5 mph - N/A   Scattered Clouds
6:56 PM 88.0 °F 87.9 °F 61.0 °F 40% 29.96 in 10.0 mi South 10.4 mph 19.6 mph N/A   Scattered Clouds
7:56 PM 86.0 °F 86.1 °F 61.0 °F 43% 29.97 in 10.0 mi South 8.1 mph - N/A   Scattered Clouds
8:56 PM 84.0 °F 84.4 °F 61.0 °F 46% 29.97 in 10.0 mi SSE 8.1 mph - N/A   Mostly Cloudy
9:56 PM 81.0 °F 82.7 °F 64.9 °F 58% 29.99 in 10.0 mi SE 5.8 mph - N/A   Scattered Clouds
10:56 PM 78.1 °F - 64.9 °F 64% 29.99 in 10.0 mi SSE 5.8 mph - N/A   Mostly Cloudy
11:56 PM 77.0 °F - 64.9 °F 66% 30.01 in 10.0 mi SE 6.9 mph - N/A   Partly Cloudy